Sulukta

Kyrgyzstan     39˚56′17″N   69˚34′12″E
temp.,
°C
wind,
m/s
gust,
m/s
humid.,
%
clouds,
%
prec.,
mm/h
press.,
hPa
HPBL,
m
1 december, tue
tue100:00ese235898 0.0 102825
03:00+1˚ese224993 0.0 102623
06:00+2˚ene115296 0.0 102625
09:00+3˚ese225196 0.0 102537
12:00+4˚ene127498 0.0 102582
15:00+6˚ene337285 0.0 1024120
18:00+4˚e347092 0.0 102559
21:00+3˚e457299 0.0 102797
2 december, wed
wed200:00+1˚e458250 0.0 102797
03:00+2˚e348131 0.0 102659
06:00+2˚e337866 0.0 102748
09:00+3˚e3375100 0.0 102743
12:00+6˚ene347483 0.0 1026197
15:00+8˚ene3370100 0.0 1025256
18:00+4˚e2278100 0.0 102431
21:00+4˚w117991 0.0 102522
3 december, thu
thu300:00+2˚ene227867 0.0 102526
03:00+3˚ene227563 0.0 102542
06:00+4˚ne237482 0.0 102566
09:00+3˚ene2383100 0.0 102664
12:00+7˚ne3480100 0.0 1025184
15:00+8˚ne337791 0.0 1024290
18:00+5˚nne128895 0.0 102370
21:00+4˚nnw1194100 0.3 102488
4 december, fri
fri400:00+3˚nw1198100 2.1 102372
03:00+3˚sw1197100 4.7 102377
06:00+3˚w1298100 7.1 1022113
09:00+1˚wnw2298100 2.8 102482
12:00nw2298100 5.0 102591
15:00−1˚nw2297100 1.3 1026130
18:00−1˚nw1196100 2.3 1028117
21:00−1˚se0191100 0.3 103096
5 december, sat
sat500:00−1˚s128798 0.3 103027
03:00−2˚sse118335 0.0 103032
06:00−2˚ese118019 0.0 103021
09:00−1˚ese117820 0.0 102923
12:00+1˚nnw117533 0.0 1027264
15:00+2˚n127527 0.0 1025470
18:00nw128939 0.0 102522
21:00−2˚wnw019267 0.0 102721